Tracking 20721 objects as of 2-Jun-2020
HD Live streaming from Space Station
objects crossing your sky now

OBJECT K

Track OBJECT K now!
10-day predictions


NORAD ID: 42834
Int'l Code: 2017-042K
Perigee: 591.7 km
Apogee: 610.2 km
Inclination: 97.5 °
Period: 96.6 minutes
Semi major axis: 6971 km
RCS: Unknown
Launch date: July 14, 2017
Source: (TBD)
Launch site: TYURATAM MISSILE AND SPACE COMPLEX (TTMTR)
aabbcc
Your satellite tracking list
Your tracking list is empty




NASA's NSSDC Master Catalog

Two Line Element Set (TLE):
1 42834U 17042K   20151.89772239  .00000242  00000-0  29603-4 0  9993
2 42834  97.5241  34.9548 0013264 351.9896   8.1110 14.91323887156695
Source of the keplerian elements: AFSPC